GW0719 Weather Reports


Display with metric or nautical units.
time (UTC)temp
F
wind
direction
speed
MPH
gust
MPH
rain 1hr
in
rain 24hr
in
rain mn
in
humidity
%
barometer
mb
20260509075058 50 36 0.0 0.0 0.00 0.00 0.00 10 1014.6
20260509074555 50 22 0.0 0.0 0.00 0.00 0.00 10 1014.7
20260509074051 50 15 0.0 0.0 0.00 0.00 0.00 10 1014.6
20260509073548 52 31 0.0 0.0 0.00 0.00 0.00 10 1014.5
20260509073045 52 2 0.0 0.0 0.00 0.00 0.00 10 1014.5
20260509072541 53 10 0.0 0.0 0.00 0.00 0.00 10 1014.4
20260509072038 53 352 0.0 0.0 0.00 0.00 0.00 10 1014.2
20260509071535 53 33 0.0 0.0 0.00 0.00 0.00 10 1014.3
20260509071033 54 56 0.0 0.0 0.00 0.00 0.00 10 1014.1
20260509070530 54 52 0.0 0.0 0.00 0.00 0.00 10 1013.9
20260509070026 54 62 0.0 0.0 0.00 0.00 0.00 10 1014.0
20260509065521 54 81 0.0 0.0 0.00 0.00 0.00 10 1014.0
20260509065018 54 100 0.0 0.0 0.00 0.00 0.00 10 1013.9
20260509064515 54 78 0.0 0.0 0.00 0.00 0.00 10 1013.9
20260509064013 54 75 0.0 0.0 0.00 0.00 0.00 10 1013.9
20260509063508 54 70 0.0 0.0 0.00 0.00 0.00 10 1013.7
20260509063006 54 49 0.0 0.0 0.00 0.00 0.00 10 1013.9
20260509062503 54 39 0.0 0.0 0.00 0.00 0.00 10 1014.1
20260509062001 53 39 0.0 0.0 0.00 0.00 0.00 10 1014.0
20260509061457 53 22 0.0 0.0 0.00 0.00 0.00 10 1013.7
20260509060954 53 23 0.0 0.0 0.00 0.00 0.00 10 1014.0
20260509060452 53 27 0.0 0.0 0.00 0.00 0.00 10 1013.9
20260509055948 53 51 0.0 0.0 0.00 0.00 0.00 10 1013.7
20260509055443 54 54 0.0 0.0 0.00 0.00 0.00 10 1013.5
20260509054939 54 49 0.0 0.0 0.00 0.00 0.00 10 1013.6
20260509054436 54 49 0.0 0.0 0.00 0.00 0.00 10 1013.5
20260509053934 55 51 0.0 0.0 0.00 0.00 0.00 10 1013.2
20260509053432 55 52 0.0 0.0 0.00 0.00 0.00 10 1013.5
20260509052929 55 44 0.0 0.0 0.00 0.00 0.00 10 1013.4
20260509052427 55 42 0.0 0.0 0.00 0.00 0.00 10 1013.2
20260509051925 55 42 0.0 0.0 0.00 0.00 0.00 10 1013.3
20260509051422 55 38 0.0 0.0 0.00 0.00 0.00 10 1013.1
20260509050919 55 37 0.0 0.0 0.00 0.00 0.00 10 1013.3
20260509050416 55 47 0.0 0.0 0.00 0.00 0.00 10 1013.0
20260509045912 56 49 0.0 0.0 0.00 0.00 0.00 10 1013.1
20260509045409 56 41 0.0 0.0 0.00 0.00 0.00 10 1012.9
20260509044906 57 40 0.0 0.0 0.00 0.00 0.00 10 1013.0
20260509044404 57 37 0.0 0.0 0.00 0.00 0.00 10 1012.7
20260509043901 57 40 0.0 0.0 0.00 0.00 0.00 10 1012.9
20260509043356 58 32 0.0 0.0 0.00 0.00 0.00 10 1012.6
20260509042852 58 35 0.0 0.0 0.00 0.00 0.00 10 1012.5
20260509042349 58 30 0.0 0.0 0.00 0.00 0.00 10 1012.3
20260509041846 58 27 0.0 0.0 0.00 0.00 0.00 10 1012.6
20260509041343 58 41 0.0 0.0 0.00 0.00 0.00 10 1012.2
20260509040841 57 22 0.0 0.0 0.00 0.00 0.00 10 1012.3
20260509040339 56 20 0.0 0.0 0.00 0.00 0.00 10 1011.9
20260509035835 56 19 0.0 0.0 0.00 0.00 0.00 10 1011.8
20260509035333 57 9 0.0 0.0 0.00 0.00 0.00 10 1011.8
20260509034828 58 8 0.0 0.0 0.00 0.00 0.00 10 1011.9
20260509034327 59 25 0.0 0.0 0.00 0.00 0.00 10 1011.6
20260509033823 59 27 0.0 0.0 0.00 0.00 0.00 10 1011.4
20260509033320 59 29 0.0 0.0 0.00 0.00 0.00 10 1011.4
20260509032817 59 27 0.0 0.0 0.00 0.00 0.00 10 1011.4
20260509032314 60 41 0.0 0.0 0.00 0.00 0.00 10 1011.5
20260509031812 60 33 0.0 0.0 0.00 0.00 0.00 10 1011.3
20260509031309 60 33 0.0 0.0 0.00 0.00 0.00 10 1011.2
20260509030807 60 35 0.0 0.0 0.00 0.00 0.00 10 1011.3
20260509030304 61 19 0.0 0.0 0.00 0.00 0.00 10 1011.0
20260509025801 61 38 0.0 0.0 0.00 0.00 0.00 10 1010.8
20260509025256 62 31 0.0 0.0 0.00 0.00 0.00 10 1010.8
20260509024752 62 35 0.0 0.0 0.00 0.00 0.00 10 1010.5
20260509024248 62 29 0.0 0.0 0.00 0.00 0.00 10 1011.0
20260509023746 62 44 0.0 0.0 0.00 0.00 0.00 10 1010.8
20260509023243 63 31 0.0 0.0 0.00 0.00 0.00 10 1010.4
20260509022739 64 36 0.0 0.0 0.00 0.00 0.00 10 1010.3
20260509022237 64 45 0.0 0.0 0.00 0.00 0.00 10 1010.4
20260509021733 64 41 0.0 0.0 0.00 0.00 0.00 10 1010.4
20260509021231 65 37 0.0 0.0 0.00 0.00 0.00 10 1010.3
20260509020729 66 39 0.0 0.0 0.00 0.00 0.00 10 1010.4
20260509020226 66 31 0.0 0.0 0.00 0.00 0.00 10 1010.4
20260509015724 67 33 0.0 0.0 0.00 0.00 0.00 10 1010.2
20260509015222 67 34 0.0 0.0 0.00 0.00 0.00 10 1010.5
20260509014718 67 42 0.0 0.0 0.00 0.00 0.00 10 1010.3
20260509014215 68 37 0.0 0.0 0.00 0.00 0.00 10 1010.5
20260509013712 68 31 0.0 0.0 0.00 0.00 0.00 10 1010.4
20260509013207 68 34 0.0 0.0 0.00 0.00 0.00 10 1010.4
20260509012704 69 1 0.0 0.0 0.00 0.00 0.00 10 1010.2
20260509012200 69 9 0.0 0.0 0.00 0.00 0.00 10 1010.3
20260509011658 69 11 0.0 2.0 0.00 0.00 0.00 10 1010.5
20260509011155 69 26 1.0 2.0 0.00 0.00 0.00 10 1010.2
20260509010653 69 21 0.0 0.0 0.00 0.00 0.00 10 1010.4
20260509010149 69 23 0.0 0.0 0.00 0.00 0.00 10 1010.2
20260509005647 69 20 0.0 1.0 0.00 0.00 0.00 10 1010.3
20260509005143 69 3 2.0 3.0 0.00 0.00 0.00 10 1010.2
20260509004639 70 8 0.0 0.0 0.00 0.00 0.00 10 1010.3
20260509004136 70 15 1.0 3.0 0.00 0.00 0.00 10 1010.0
20260509003635 70 356 0.0 3.0 0.00 0.00 0.00 10 1009.9
20260509003132 70 17 1.0 3.0 0.00 0.00 0.00 10 1009.9
20260509002629 70 27 0.0 0.0 0.00 0.00 0.00 10 1010.2
20260509002126 70 33 0.0 0.0 0.00 0.00 0.00 10 1010.1
20260509001624 70 23 0.0 0.0 0.00 0.00 0.00 10 1010.1
20260509001119 71 8 0.0 5.0 0.00 0.00 0.00 10 1009.9
20260509000618 71 15 2.0 5.0 0.00 0.00 0.00 10 1010.1
20260509000114 71 20 2.0 2.0 0.00 0.00 0.00 10 1009.9
20260508235612 71 6 0.0 2.0 0.00 0.00 0.00 10 1009.9
20260508235108 72 344 1.0 2.0 0.00 0.00 0.00 10 1009.9
20260508234606 72 352 0.0 1.0 0.00 0.00 0.00 10 1009.9
20260508234102 73 20 0.0 1.0 0.00 0.00 0.00 10 1009.7
20260508233601 72 340 0.0 2.0 0.00 0.00 0.00 10 1009.8
20260508233058 73 356 0.0 2.0 0.00 0.00 0.00 10 1009.8
20260508232555 73 358 1.0 5.0 0.00 0.00 0.00 10 1009.7
20260508232052 73 10 0.0 0.0 0.00 0.00 0.00 10 1009.9
20260508231550 74 348 2.0 3.0 0.00 0.00 0.00 10 1010.0
20260508231047 73 2 3.0 6.0 0.00 0.00 0.00 10 1010.0
20260508230543 74 349 1.0 3.0 0.00 0.00 0.00 10 1010.0
20260508230040 73 327 0.0 5.0 0.00 0.00 0.00 10 1009.6
20260508225537 73 6 0.0 1.0 0.00 0.00 0.00 10 1010.0
20260508225034 73 336 0.0 2.0 0.00 0.00 0.00 10 1009.8
20260508224532 75 14 0.0 3.0 0.00 0.00 0.00 10 1009.9
20260508224029 74 358 1.0 6.0 0.00 0.00 0.00 10 1009.9
20260508223527 74 334 0.0 1.0 0.00 0.00 0.00 10 1009.9
20260508223024 73 341 1.0 5.0 0.00 0.00 0.00 10 1009.9
20260508222521 74 355 0.0 3.0 0.00 0.00 0.00 10 1009.8
20260508222017 73 353 21.0 25.0 0.00 0.00 0.00 10 1009.8
20260508221514 74 19 1.0 3.0 0.00 0.00 0.00 10 1009.9
20260508221010 73 5 1.0 2.0 0.00 0.00 0.00 10 1010.2
20260508220507 74 335 0.0 3.0 0.00 0.00 0.00 10 1009.8
20260508220003 74 322 1.0 6.0 0.00 0.00 0.00 10 1009.9
20260508215459 74 8 2.0 5.0 0.00 0.00 0.00 10 1009.9
20260508214956 73 359 1.0 3.0 0.00 0.00 0.00 10 1010.0
20260508214454 73 336 0.0 8.0 0.00 0.00 0.00 10 1010.2
20260508213950 74 335 4.0 9.0 0.00 0.00 0.00 10 1010.1
20260508213448 72 335 1.0 2.0 0.00 0.00 0.00 10 1010.1
20260508212942 73 311 0.0 1.0 0.00 0.00 0.00 10 1010.1
20260508212440 73 3 0.0 3.0 0.00 0.00 0.00 10 1010.2
20260508211936 73 329 0.0 0.0 0.00 0.00 0.00 10 1010.1
20260508211431 73 327 2.0 3.0 0.00 0.00 0.00 10 1010.2
20260508210929 74 349 1.0 6.0 0.00 0.00 0.00 10 1010.1
20260508210425 73 350 0.0 1.0 0.00 0.00 0.00 10 1010.0
20260508205922 72 354 1.0 2.0 0.00 0.00 0.00 10 1010.3
20260508205419 74 343 2.0 6.0 0.00 0.00 0.00 10 1010.0
20260508204915 74 349 0.0 2.0 0.00 0.00 0.00 10 1010.1
20260508204412 74 329 0.0 7.0 0.00 0.00 0.00 10 1010.1
20260508203908 73 325 1.0 2.0 0.00 0.00 0.00 10 1010.0
20260508203404 73 338 0.0 3.0 0.00 0.00 0.00 10 1010.3
20260508202900 73 326 1.0 2.0 0.00 0.00 0.00 10 1010.3
20260508202357 73 312 2.0 7.0 0.00 0.00 0.00 10 1010.2
20260508201855 73 359 1.0 3.0 0.00 0.00 0.00 10 1010.3
20260508201351 73 12 0.0 3.0 0.00 0.00 0.00 10 1010.1
20260508200848 72 326 5.0 7.0 0.00 0.00 0.00 10 1010.2
20260508200345 73 331 1.0 6.0 0.00 0.00 0.00 10 1010.3
20260508195840 73 329 1.0 3.0 0.00 0.00 0.00 10 1010.1
20260508195337 73 305 1.0 2.0 0.00 0.00 0.00 10 1010.3
20260508194833 73 319 1.0 3.0 0.00 0.00 0.00 10 1010.2
20260508194331 73 307 1.0 6.0 0.00 0.00 0.00 10 1010.2
20260508193827 72 319 0.0 6.0 0.00 0.00 0.00 10 1010.4
20260508193324 72 291 0.0 3.0 0.00 0.00 0.00 10 1010.5
20260508192821 71 311 0.0 2.0 0.00 0.00 0.00 10 1010.5
20260508192318 71 307 0.0 1.0 0.00 0.00 0.00 10 1010.4
20260508191815 71 303 0.0 1.0 0.00 0.00 0.00 10 1010.4
20260508191312 71 322 1.0 2.0 0.00 0.00 0.00 10 1011.1
20260508190809 72 302 1.0 3.0 0.00 0.00 0.00 10 1011.0
20260508190305 71 313 0.0 1.0 0.00 0.00 0.00 10 1011.0
20260508185801 70 314 1.0 2.0 0.00 0.00 0.00 10 1011.1
20260508185300 71 324 1.0 2.0 0.00 0.00 0.00 10 1011.3
20260508184756 70 290 1.0 3.0 0.00 0.00 0.00 10 1011.1
20260508184254 71 304 0.0 2.0 0.00 0.00 0.00 10 1011.3
20260508183750 71 309 1.0 3.0 0.00 0.00 0.00 10 1011.3
20260508183247 70 306 0.0 3.0 0.00 0.00 0.00 10 1011.5
20260508182743 70 281 0.0 3.0 0.00 0.00 0.00 10 1011.8
20260508182240 70 293 1.0 2.0 0.00 0.00 0.00 10 1011.5
20260508181735 70 291 0.0 3.0 0.00 0.00 0.00 10 1011.5
20260508181233 71 319 1.0 5.0 0.00 0.00 0.00 10 1011.6
20260508180729 70 352 17.0 22.0 0.00 0.00 0.00 10 1011.4
20260508180226 70 311 0.0 3.0 0.00 0.00 0.00 10 1011.6
20260508175722 70 302 0.0 0.0 0.00 0.00 0.00 10 1011.8
20260508175219 69 293 0.0 2.0 0.00 0.00 0.00 10 1011.6
20260508174718 69 15 0.0 2.0 0.00 0.00 0.00 10 1011.8
20260508174215 68 291 0.0 5.0 0.00 0.00 0.00 10 1011.9
20260508173710 68 279 0.0 2.0 0.00 0.00 0.00 10 1011.8
20260508173207 68 310 1.0 2.0 0.00 0.00 0.00 10 1012.0
20260508172704 69 303 0.0 0.0 0.00 0.00 0.00 10 1012.0
20260508172201 68 306 0.0 1.0 0.00 0.00 0.00 10 1011.9
20260508171657 68 296 0.0 0.0 0.00 0.00 0.00 10 1012.2
20260508171153 67 321 0.0 1.0 0.00 0.00 0.00 10 1012.2
20260508170650 66 328 0.0 1.0 0.00 0.00 0.00 10 1012.5
20260508170148 67 39 3.0 10.0 0.00 0.00 0.00 10 1012.3
20260508165645 66 285 0.0 1.0 0.00 0.00 0.00 10 1012.1
20260508165142 67 298 0.0 1.0 0.00 0.00 0.00 10 1012.5
20260508164638 67 314 0.0 1.0 0.00 0.00 0.00 10 1012.3
20260508164135 66 255 0.0 2.0 0.00 0.00 0.00 10 1012.5
20260508163633 66 314 0.0 2.0 0.00 0.00 0.00 10 1012.5
20260508163130 66 315 0.0 2.0 0.00 0.00 0.00 10 1012.6
20260508162626 65 275 0.0 1.0 0.00 0.00 0.00 10 1012.6
20260508162124 65 313 0.0 1.0 0.00 0.00 0.00 10 1013.0
20260508161620 64 274 0.0 1.0 0.00 0.00 0.00 10 1012.9
20260508161118 64 274 0.0 3.0 0.00 0.00 0.00 10 1013.0
20260508160616 64 282 0.0 2.0 0.00 0.00 0.00 10 1013.0
20260508160113 64 293 0.0 0.0 0.00 0.00 0.00 10 1013.3
20260508155610 62 294 0.0 0.0 0.00 0.00 0.00 10 1013.1
20260508155107 63 248 0.0 0.0 0.00 0.00 0.00 10 1013.1
20260508154603 63 289 0.0 1.0 0.00 0.00 0.00 10 1012.7
20260508154101 63 296 0.0 0.0 0.00 0.00 0.00 10 1013.1
20260508153557 62 292 0.0 0.0 0.00 0.00 0.00 10 1013.2
20260508153054 62 336 0.0 0.0 0.00 0.00 0.00 10 1013.3
20260508152551 61 313 0.0 0.0 0.00 0.00 0.00 10 1013.3
20260508152046 60 283 0.0 1.0 0.00 0.00 0.00 10 1013.4
20260508151543 60 312 0.0 1.0 0.00 0.00 0.00 10 1013.6
20260508151040 58 279 0.0 2.0 0.00 0.00 0.00 10 1013.7
20260508150538 57 300 0.0 1.0 0.00 0.00 0.00 10 1013.6
20260508150033 57 298 0.0 1.0 0.00 0.00 0.00 10 1013.7
20260508145530 57 284 0.0 0.0 0.00 0.00 0.00 10 1013.7
20260508145026 56 224 1.0 8.0 0.00 0.00 0.00 10 1014.0
20260508144524 56 299 0.0 1.0 0.00 0.00 0.00 10 1013.9
20260508144021 55 301 0.0 1.0 0.00 0.00 0.00 10 1013.9
20260508143519 55 256 0.0 3.0 0.00 0.00 0.00 10 1013.7
20260508143015 54 283 0.0 1.0 0.00 0.00 0.00 10 1013.7
20260508142512 55 272 0.0 3.0 0.00 0.00 0.00 10 1013.7
20260508142009 55 281 0.0 0.0 0.00 0.00 0.00 10 1013.9
20260508141505 55 262 0.0 0.0 0.00 0.00 0.00 10 1013.9
20260508141003 56 272 0.0 1.0 0.00 0.00 0.00 10 1013.7
20260508140500 54 46 0.0 0.0 0.00 0.00 0.00 10 1013.9
20260508135955 53 49 0.0 0.0 0.00 0.00 0.00 10 1013.6
20260508135452 52 41 0.0 0.0 0.00 0.00 0.00 10 1013.6
20260508134948 50 20 0.0 0.0 0.00 0.00 0.00 10 1014.1
20260508134445 49 31 0.0 0.0 0.00 0.00 0.00 10 1013.9
20260508133942 49 15 0.0 0.0 0.00 0.00 0.00 10 1013.9
20260508133439 48 13 0.0 0.0 0.00 0.00 0.00 10 1014.0
20260508132936 47 24 0.0 0.0 0.00 0.00 0.00 10 1013.7
20260508132434 46 317 0.0 0.0 0.00 0.00 0.00 10 1014.1
20260508131931 45 21 0.0 0.0 0.00 0.00 0.00 10 1014.0
20260508131426 44 24 0.0 0.0 0.00 0.00 0.00 10 1014.0
20260508130923 44 356 0.0 0.0 0.00 0.00 0.00 10 1014.0
20260508130420 44 3 0.0 0.0 0.00 0.00 0.00 10 1014.2
20260508125916 42 344 0.0 0.0 0.00 0.00 0.00 10 1014.0
20260508125412 42 315 0.0 0.0 0.00 0.00 0.00 10 1014.2
20260508124910 41 319 0.0 0.0 0.00 0.00 0.00 10 1014.1
20260508124407 40 351 0.0 0.0 0.00 0.00 0.00 10 1014.0
20260508123905 39 349 0.0 0.0 0.00 0.00 0.00 10 1014.2
20260508123403 39 48 0.0 0.0 0.00 0.00 0.00 10 1014.0
20260508122859 39 336 0.0 0.0 0.00 0.00 0.00 10 1014.3
20260508122356 38 17 0.0 0.0 0.00 0.00 0.00 10 1014.1
20260508121853 37 10 0.0 0.0 0.00 0.00 0.00 10 1013.7
20260508121352 38 5 0.0 0.0 0.00 0.00 0.00 10 1013.9
20260508120849 37 342 0.0 0.0 0.00 0.00 0.00 10 1014.1
20260508120347 36 43 0.0 0.0 0.00 0.00 0.00 10 1014.2
20260508115844 37 36 0.0 0.0 0.00 0.00 0.00 10 1014.0
20260508115341 39 7 0.0 0.0 0.00 0.00 0.00 10 1014.1
20260508114838 40 319 0.0 0.0 0.00 0.00 0.00 10 1014.4
20260508114335 40 10 0.0 0.0 0.00 0.00 0.00 10 1014.4
20260508113832 40 9 0.0 0.0 0.00 0.00 0.00 10 1014.2
20260508113330 39 3 0.0 0.0 0.00 0.00 0.00 10 1014.1
20260508112826 38 31 0.0 0.0 0.00 0.00 0.00 10 1014.2
20260508112323 40 34 0.0 0.0 0.00 0.00 0.00 10 1013.9
20260508111820 40 28 0.0 0.0 0.00 0.00 0.00 10 1014.1
20260508111317 40 11 0.0 0.0 0.00 0.00 0.00 10 1014.2
20260508110814 40 27 0.0 0.0 0.00 0.00 0.00 10 1014.1
20260508110312 41 27 0.0 0.0 0.00 0.00 0.00 10 1014.5
20260508105811 41 18 0.0 0.0 0.00 0.00 0.00 10 1014.3
20260508105308 41 35 0.0 0.0 0.00 0.00 0.00 10 1014.5
20260508104805 41 44 0.0 0.0 0.00 0.00 0.00 10 1014.3
20260508104302 41 29 0.0 0.0 0.00 0.00 0.00 10 1014.6
20260508103759 41 331 0.0 0.0 0.00 0.00 0.00 10 1014.4
20260508103256 42 313 0.0 1.0 0.00 0.00 0.00 10 1014.6
20260508102753 42 304 0.0 0.0 0.00 0.00 0.00 10 1014.5
20260508102251 41 291 0.0 0.0 0.00 0.00 0.00 10 1014.4
20260508101749 41 331 0.0 0.0 0.00 0.00 0.00 10 1014.6
20260508101246 40 34 0.0 0.0 0.00 0.00 0.00 10 1014.2
20260508100743 40 2 0.0 0.0 0.00 0.00 0.00 10 1014.3
20260508100241 39 336 0.0 0.0 0.00 0.00 0.00 10 1014.5
20260508095737 40 315 0.0 0.0 0.00 0.00 0.00 10 1014.5
20260508095235 37 300 0.0 0.0 0.00 0.00 0.00 10 1014.7
20260508094731 37 280 0.0 1.0 0.00 0.00 0.00 10 1014.4
20260508094229 37 302 0.0 1.0 0.00 0.00 0.00 10 1014.4
20260508093726 37 308 0.0 0.0 0.00 0.00 0.00 10 1014.3
20260508093223 36 303 0.0 0.0 0.00 0.00 0.00 10 1014.4
20260508092720 36 321 0.0 0.0 0.00 0.00 0.00 10 1014.4
20260508092218 36 358 0.0 0.0 0.00 0.00 0.00 10 1014.5
20260508091716 37 301 0.0 0.0 0.00 0.00 0.00 10 1014.1
20260508091213 38 319 0.0 0.0 0.00 0.00 0.00 10 1014.3
20260508090711 38 0 0.0 0.0 0.00 0.00 0.00 10 1014.1
20260508090208 41 15 0.0 0.0 0.00 0.00 0.00 10 1014.2
20260508085703 43 5 0.0 0.0 0.00 0.00 0.00 10 1014.4
20260508085201 43 13 0.0 0.0 0.00 0.00 0.00 10 1014.2
20260508084657 41 336 0.0 0.0 0.00 0.00 0.00 10 1014.3
20260508084155 41 305 0.0 0.0 0.00 0.00 0.00 10 1014.2
20260508083652 40 303 0.0 0.0 0.00 0.00 0.00 10 1014.2
20260508083149 41 333 0.0 0.0 0.00 0.00 0.00 10 1014.3
20260508082644 41 338 0.0 0.0 0.00 0.00 0.00 10 1014.4
20260508082142 42 322 0.0 0.0 0.00 0.00 0.00 10 1014.1
20260508081639 42 322 0.0 0.0 0.00 0.00 0.00 10 1014.4
20260508081135 40 306 0.0 0.0 0.00 0.00 0.00 10 1014.1
20260508080633 39 321 0.0 0.0 0.00 0.00 0.00 10 1014.4
20260508080131 38 328 0.0 0.0 0.00 0.00 0.00 10 1014.2
20260508075627 39 358 0.0 0.0 0.00 0.00 0.00 10 1014.4